Вернуться в каталог

STARLINK-35772

АктивенСвязьVLEO
NORAD 66976·PAYLOAD·🇺🇸 United States

Запущен Dec 8, 2025 с Cape Canaveral Space Force Station

Loading…

Ближайшие Пролёты (ближайшие 24 часа)

TLE

СвежийSource: CelesTrak SupGP

Эпоха: Sep 15, 2026, 03:25 UTC

1 66976C 25288T   26258.14284722 -.00006985  00000+0 -25298-3 0  2588
2 66976  43.0038  33.5421 0001384 267.4669  36.7522 15.27584212    11

Отслеживайте STARLINK-35772 в реальном времени с AllMySat

Download on the App Store